Location: Haliburton Scout Reserve
(45.0900°N, 78.3200°W)
Time: 07:39:33
(UTC-04:00)

S-56A Canister/Altair - Pass Details

Date: 01 February 2023
Orbit: 639 x 2493 km, 38.9° (Epoch: 27 March)

Event Time Altitude Azimuth Distance (km) Brightness Sun altitude
Rises 11:41:20 0° 227° (SW) 2,956 10.9 27.0°
Reaches altitude 10° 11:43:43 10° 215° (SW) 2,120 10.5 27.1°
Maximum altitude 11:47:50 29° 155° (SSE) 1,405 11.0 27.2°
Drops below altitude 10° 11:53:01 10° 97° (E) 2,702 10.6 27.4°
Sets 11:56:27 0° 87° (E) 3,944 11.2 27.5°
